Flag for United Kingdom Weather past 2 weeks in London, England, United Kingdom

Now
45 °F

Passing clouds.


Feels Like: 39 °F
Forecast: 45 / 53 °F
Wind: 12 mph from North

Location: Northolt

Current Time: Apr 2, 2015 at 5:57:24 AM

Latest Report: Apr 2, 2015 at 4:50 AM


Visibility: 4 mi

Pressure: 30.01 "Hg

Humidity: 93%

Dew point: 43 °F

Location of LondonLocation

Historic Weather in London — Graph

°F

London temperature yesterday

Maximum temperature yesterday: 52 °F (at 2:50 PM)
Minimum temperature yesterday: 39 °F (at 4:50 AM)
Average temperature yesterday: 45 °F

Past Weeks' High & Low Weather Summary

 TemperatureHumidityPressure
High57 °F (Mar 28, 11:50 AM)100% (Mar 28, 4:50 AM)30.54 "Hg (Mar 28, 4:50 AM)
Low32 °F (Mar 23, 12:50 AM)32% (Mar 24, 4:50 PM)29.33 "Hg (Mar 29, 2:50 PM)
Average46 °F70%30.01 "Hg
* Reported Mar 18 2:50 AM — Apr 2 3:50 AM, London, Weather by CustomWeather, © 2015

Note: Actual official high and low records may vary slightly from our data, if they occured in-between our weather recording intervals... More about our weather records

Advertising

London weather history for previous 24 hours

 ConditionsComfort  
Time TempWeatherWind HumidityBarometerVisibility
3:50 AM
Thu, Apr 2
50 °FPassing clouds.16 mph88%29.95 "Hg5 mi
2:50 AM50 °FPartly cloudy.16 mph88%29.95 "HgN/A
1:50 AM48 °FPassing clouds.17 mph87%29.98 "HgN/A
12:50 AM46 °FLow clouds.17 mph93%30.01 "HgN/A
11:50 PM
Wed, Apr 1
45 °FLow clouds.15 mph100%30.04 "Hg4 mi
10:50 PM45 °FPassing clouds.12 mph93%30.07 "Hg1 mi
9:50 PM46 °FLight rain. Mostly cloudy.13 mph87%30.09 "Hg4 mi
8:50 PM46 °FLight rain. Mostly cloudy.14 mph71%30.12 "HgN/A
7:50 PM48 °FMostly cloudy.14 mph66%30.15 "HgN/A
6:50 PM48 °FMostly cloudy.16 mph66%30.18 "HgN/A
5:50 PM48 °FBroken clouds.20 mph62%30.18 "HgN/A
4:50 PM48 °FSprinkles. Broken clouds.20 mph62%30.18 "HgN/A
3:50 PM50 °FBroken clouds.22 mph47%30.21 "HgN/A
2:50 PM52 °FSunny.20 mph47%30.21 "Hg10 mi
1:50 PM50 °FSunny.20 mph43%30.24 "Hg10 mi
12:50 PM50 °FPartly sunny.20 mph40%30.24 "HgN/A
11:50 AM48 °FBroken clouds.20 mph46%30.27 "HgN/A
10:50 AM48 °FScattered clouds.22 mph50%30.24 "HgN/A
9:50 AM46 °FPassing clouds.20 mph50%30.24 "HgN/A
8:50 AM45 °FPassing clouds.17 mph53%30.24 "HgN/A
7:50 AM41 °FSunny.15 mph61%30.21 "Hg10 mi
6:50 AM39 °FClear.15 mph65%30.21 "Hg10 mi
5:50 AM39 °FClear.16 mph61%30.18 "HgN/A
Weather by CustomWeather, © 2015

See weather overviewHow to use our weather pages